Погода в Тверии

Израиль     32°46′57″N   35°31′34″E
темп.,
°C
ветер,
м/с
пор.,
м/с
влажн.,
%
обл.,
%
осадки,
мм/ч
давл.,
гПа
погр.,
м
19 мая, ср
ср1900:00+19зюз11760 0.0 101321
03:00+18зюз11820 0.0 101214
06:00+18з01810 0.0 101312
09:00+24вюв11500 0.0 1013559
12:00+31вюв12290 0.0 1012886
15:00+35з33210 0.0 10091321
18:00+32юз22260 0.0 1009599
21:00+23зюз11550 0.0 101032
20 мая, чт
чт2000:00+21зсз11600 0.0 101119
03:00+19зюз11660 0.0 101014
06:00+19зюз11700 0.0 101112
09:00+26юв21360 0.0 1011438
12:00+35в12180 0.0 1010982
15:00+37зюз53200 0.0 10071214
18:00+34юз23240 0.0 1007527
21:00+25юз21490 0.0 100834
21 мая, пт
пт2100:00+22з336592 0.0 100975
03:00+20з228533 0.0 100938
06:00+20ю11915 0.0 100921
09:00+27юз23530 0.0 1009645
12:00+34зюз23260 0.0 10071151
15:00+35зсз962137 0.0 10061283
18:00+29зсз67350 0.0 1007699
21:00+22зюз34650 0.0 1009131
22 мая, сб
сб2200:00+20зюз23820 0.0 101074
03:00+19зюз22880 0.0 101041
06:00+19зюз228730 0.0 101146
09:00+24зюз575943 0.0 10111218
12:00+28зсз78390 0.0 10111767
15:00+28з99290 0.0 10101424
18:00+23зсз89460 0.0 10111299
21:00+20з59668 0.0 1012622
23 мая, вс
вс2300:00+21з585795 0.0 10121332
03:00+21з465797 0.0 10111015
06:00+20зюз466097 0.0 1010715
09:00+23юз565510 0.1 10111286
12:00+28з763513 0.0 10102182
15:00+28з76340 0.0 10091893
18:00+25зсз77440 0.0 10101322
21:00+21з35690 0.0 1012122